Location: College Park
(38.9810°N, 76.9370°W)
Time: 07:30:09

Hubble Space Telescope - Pass Details

Date: 09 January 2018
Orbit: 537 x 541 km, 28.5° (Epoch: 20 March)

Event Time Altitude Azimuth Distance (km) Brightness Sun altitude
Exits shadow 05:54:12 12° 219° (SW) 1,651 3.0 -17.5°
Maximum altitude 05:56:00 15° 191° (S) 1,478 3.0 -17.2°
Drops below altitude 10° 05:58:26 10° 155° (SSE) 1,784 4.0 -16.7°
Sets 06:01:27 0° 132° (SE) 2,672 5.5 -16.2°
